Wheeler AAF, HI

10:50 PM HST on April 27, 2017 (GMT -1000)
Wheeler Army Air Field

Weather History for PHHI - May, 2013

Change the Weather History Date:

Wednesday, May 22, 2013

  Actual Average Record
Temperature  
Mean Temperature 72 °F -  
Max Temperature 81 °F 77 °F 84 °F (2002)
Min Temperature 62 °F 64 °F 62 °F (2000)
Cooling Degree Days 6    
Growing Degree Days 22 (Base 50)    
Moisture  
Dew Point 67 °F    
Average Humidity 80    
Maximum Humidity 95    
Minimum Humidity 59    
Precipitation  
Precipitation 0.18 in - - ()
Sea Level Pressure  
Sea Level Pressure 29.98 in    
Wind  
Wind Speed 4 mph (NNW)    
Max Wind Speed 9 mph    
Max Gust Speed -    
Visibility 9 miles    
Events Rain    
Averages and records for this station are not official NWS values.
T = Trace of Precipitation, MM = Missing Value Source: NWS Daily Summary

Daily Weather History Graph

Daily Weather History Graph

Search for Another Location

Airport or City:

Trip Planner

Search our weather history database for the weather conditions in past years. The results will help you decide how hot, cold, wet, or windy it might be!

Date:

Astronomy

May. 22, 2013 Rise Set
Actual Time 5:51 AM HST 7:06 PM HST
Civil Twilight 5:26 AM HST 7:31 PM HST
Nautical Twilight 4:58 AM HST 7:59 PM HST
Astronomical Twilight 4:28 AM HST 8:29 PM HST
Moon 4:56 PM HST (5/22) 3:44 AM HST (5/22)
Length of Visible Light 14h 04m
Length of Day
13h 15m
Waxing Gibbous, 93% of the Moon is Illuminated
May 22
Waxing Gibbous
May 24
Full
May 31
Last Quarter
Jun 8
New
Jun 16
First Quarter

Hourly Weather History & Observations

Time (HST) Temp. Heat Index Dew Point Humidity Pressure Visibility Wind Dir Wind Speed Gust Speed Precip Events Conditions
1:55 AM 65.3 °F - 61.2 °F 86% 29.95 in 10.0 mi North 3.5 mph - N/A   Scattered Clouds
2:55 AM 66.4 °F - 61.9 °F 85% 29.94 in 10.0 mi Calm Calm - N/A   Overcast
3:55 AM 63.3 °F - 60.1 °F 89% 29.93 in 10.0 mi West 3.5 mph - N/A   Clear
4:55 AM 62.1 °F - 59.2 °F 90% 29.94 in 10.0 mi Calm Calm - N/A   Clear
5:55 AM 63.0 °F - 59.7 °F 89% 29.95 in 10.0 mi NW 3.5 mph - N/A   Clear
6:55 AM 66.0 °F - 62.1 °F 87% 29.96 in 10.0 mi Calm Calm - N/A   Clear
7:55 AM 74.8 °F - 65.7 °F 73% 29.97 in 10.0 mi Calm Calm - N/A   Clear
8:55 AM 77.4 °F - 66.4 °F 69% 29.98 in 10.0 mi Variable 4.6 mph - N/A   Partly Cloudy
9:55 AM 79.3 °F - 65.7 °F 63% 29.99 in 10.0 mi Variable 5.8 mph - N/A   Partly Cloudy
10:55 AM 81.5 °F 83.6 °F 65.8 °F 59% 29.99 in 10.0 mi SE 9.2 mph - N/A   Partly Cloudy
11:55 AM 79.9 °F - 64.8 °F 60% 29.99 in 10.0 mi SE 9.2 mph - N/A   Mostly Cloudy
12:43 PM 75.2 °F - 66.2 °F 73% 29.99 in 10.0 mi North 8.1 mph - N/A   Light Drizzle
12:55 PM 75.4 °F - 66.9 °F 75% 29.99 in 10.0 mi Calm Calm - 0.00 in   Overcast
1:32 PM 75.2 °F - 68.0 °F 78% 29.97 in 10.0 mi North 8.1 mph - N/A   Light Drizzle
1:42 PM 75.2 °F - 68.0 °F 78% 29.98 in 10.0 mi NNW 8.1 mph - N/A   Overcast
1:55 PM 75.7 °F - 67.5 °F 75% 29.97 in 10.0 mi NNW 8.1 mph - 0.00 in   Overcast
2:02 PM 75.2 °F - 68.0 °F 78% 29.97 in 10.0 mi NNW 8.1 mph - N/A   Light Drizzle
2:11 PM 75.2 °F - 68.0 °F 78% 29.97 in 10.0 mi North 8.1 mph - N/A   Overcast
2:49 PM 75.2 °F - 66.2 °F 73% 29.96 in 10.0 mi NNW 8.1 mph - N/A   Light Drizzle
2:55 PM 75.2 °F - 67.1 °F 76% 29.96 in 10.0 mi NW 4.6 mph - 0.00 in   Light Drizzle
3:06 PM 75.2 °F - 68.0 °F 78% 29.96 in 10.0 mi NNW 8.1 mph - N/A   Mostly Cloudy
3:55 PM 77.0 °F - 68.2 °F 74% 29.95 in 10.0 mi North 4.6 mph - 0.00 in   Mostly Cloudy
3:58 PM 77.0 °F - 68.0 °F 74% 29.95 in 10.0 mi NW 8.1 mph - N/A   Light Drizzle
4:42 PM 77.0 °F - 68.0 °F 74% 29.95 in 10.0 mi NW 5.8 mph - N/A   Mostly Cloudy
4:55 PM 76.5 °F - 67.3 °F 73% 29.95 in 10.0 mi NW 6.9 mph - 0.00 in   Mostly Cloudy
4:58 PM 77.0 °F - 68.0 °F 74% 29.95 in 10.0 mi NW 4.6 mph - N/A Rain Light Rain
5:12 PM 77.0 °F - 68.0 °F 74% 29.95 in 10.0 mi Variable 4.6 mph - N/A   Mostly Cloudy
5:24 PM 75.2 °F - 68.0 °F 78% 29.96 in 10.0 mi South 3.5 mph - N/A   Light Drizzle
5:38 PM 75.2 °F - 68.0 °F 78% 29.96 in 7.0 mi West 3.5 mph - N/A Rain Light Rain
5:55 PM 73.9 °F - 68.0 °F 82% 29.97 in 3.0 mi NW 4.6 mph - 0.05 in Rain Light Rain
5:56 PM 73.4 °F - 68.0 °F 83% 29.97 in 2.5 mi Variable 4.6 mph - N/A Rain Heavy Rain
5:59 PM 73.4 °F - 68.0 °F 83% 29.97 in 1.8 mi Variable 5.8 mph - N/A Rain Heavy Rain
6:05 PM 73.4 °F - 68.0 °F 83% 29.97 in 2.0 mi NW 5.8 mph - N/A Rain Light Rain
6:08 PM 73.4 °F - 68.0 °F 83% 29.97 in 3.0 mi NW 6.9 mph - N/A Rain Light Rain
6:34 PM 73.4 °F - 68.0 °F 83% 29.98 in 10.0 mi Variable 5.8 mph - N/A   Mostly Cloudy
6:55 PM 72.5 °F - 68.5 °F 87% 29.99 in 10.0 mi NNE 3.5 mph - 0.11 in   Overcast
7:14 PM 71.6 °F - 68.0 °F 88% 30.00 in 10.0 mi ENE 4.6 mph - N/A   Light Drizzle
7:49 PM 71.6 °F - 68.0 °F 88% 30.01 in 10.0 mi ENE 4.6 mph - N/A   Overcast
7:54 PM 71.6 °F - 68.0 °F 88% 30.01 in 10.0 mi ENE 4.6 mph - N/A Rain Light Rain
7:55 PM 71.6 °F - 68.4 °F 89% 30.01 in 10.0 mi ENE 3.5 mph - 0.00 in Rain Light Rain
8:19 PM 71.6 °F - 68.0 °F 88% 30.01 in 10.0 mi ENE 3.5 mph - N/A   Mostly Cloudy
8:55 PM 71.2 °F - 67.6 °F 88% 30.02 in 10.0 mi Calm Calm - 0.01 in   Mostly Cloudy
9:55 PM 69.1 °F - 66.7 °F 92% 30.03 in 10.0 mi Calm Calm - N/A   Clear
10:55 PM 67.6 °F - 66.0 °F 95% 30.04 in 10.0 mi NW 3.5 mph - N/A   Clear
11:55 PM 67.3 °F - 65.7 °F 95% 30.03 in 10.0 mi Calm Calm - 0.01 in   Scattered Clouds